Wind_Speed
40 40 41 42 44 46 48 48 49 50 50 50 50 50 51 52 53 52 52 52 50 50 50 50 50 50 49 47 46 46 45 44 43 42 42 42 42 43 43 42 42 41 41
40 40 41 41 43 45 46 46 47 49 50 51 50 50 50 51 53 53 52 52 52 51 50 51 51 52 51 50 48 47 46 46 45 44 43 42 43 43 43 43 43 42 42
40 41 41 41 42 43 44 45 46 46 48 50 51 51 51 51 52 53 53 52 52 52 51 51 52 53 53 51 50 48 48 47 47 46 45 44 44 43 43 43 43 44 44
40 42 42 42 42 43 44 45 45 46 47 48 49 50 51 52 52 52 53 53 54 53 52 52 53 54 54 53 52 51 50 49 48 47 47 47 46 45 45 45 44 45 45
40 42 43 44 44 44 44 45 46 46 46 47 48 48 50 51 52 53 53 53 53 53 53 53 53 54 54 54 53 52 51 51 50 50 49 49 48 47 47 47 46 45 45
40 43 43 43 44 44 44 45 45 45 46 47 48 49 49 50 52 53 53 54 53 53 53 53 54 54 54 54 54 53 53 53 52 51 50 50 50 50 49 48 47 46 46
40 42 42 43 43 43 43 43 44 44 45 47 48 48 48 48 49 51 52 53 53 54 54 54 54 54 54 54 55 55 54 54 53 52 51 51 51 52 51 50 48 47 47
39 40 41 42 42 42 42 42 42 43 44 45 46 46 46 47 48 49 50 51 52 52 52 53 54 55 55 55 55 54 54 54 53 53 53 52 53 53 52 51 49 49 49
37 39 40 41 41 40 40 40 41 42 42 42 43 43 44 46 47 48 50 51 52 52 51 52 52 53 54 54 55 54 53 53 53 53 53 53 53 53 53 52 52 51 50
35 36 37 38 39 39 39 39 40 40 40 40 41 41 42 44 46 47 48 47 48 50 51 52 52 52 52 53 53 53 53 53 53 53 53 53 53 53 53 53 53 53 53
32 33 35 36 37 37 37 38 39 39 39 39 40 41 41 42 44 45 46 47 46 47 49 49 50 51 52 51 51 51 52 53 53 53 53 53 53 53 52 53 53 54 54
30 31 33 34 35 36 36 37 37 38 38 38 39 40 41 42 43 44 45 45 45 46 47 48 48 49 49 49 49 49 50 51 51 51 51 52 52 53 53 54 53 53 54
28 29 31 33 33 34 35 35 36 37 37 37 38 39 40 40 41 41 42 43 44 44 44 45 46 46 47 47 47 47 48 50 50 50 51 51 51 52 53 53 53 53 53
27 28 30 31 31 32 33 34 35 35 35 35 36 38 39 39 40 41 42 43 43 44 45 46 46 46 47 48 48 49 50 50 50 50 50 50 51 51 51 52 52 52 53
25 26 27 29 30 31 32 32 33 34 34 34 35 37 37 38 38 38 38 40 42 43 43 44 45 46 47 47 48 49 49 49 49 49 50 50 50 50 51 51 51 52 52
25 26 27 27 28 30 31 32 32 34 34 33 34 35 36 36 36 36 37 37 39 40 42 43 44 44 45 46 46 47 48 48 48 48 48 49 49 50 50 51 51 52 52
24 25 26 27 27 28 28 30 31 32 33 32 33 34 35 35 35 35 36 36 37 38 39 41 42 43 44 45 46 46 47 47 47 47 48 48 48 49 49 50 51 51 51
23 24 24 25 25 26 26 28 29 29 30 32 32 33 33 34 34 34 34 35 35 37 38 39 42 43 43 43 44 45 45 46 47 47 47 47 48 48 49 49 49 50 50
22 22 23 23 23 24 25 26 28 29 29 30 31 31 32 32 32 33 34 35 35 36 37 38 39 41 42 42 43 44 45 46 47 47 47 47 47 48 48 48 49 49 49
23 22 22 23 23 24 24 26 27 28 29 30 31 31 31 32 32 32 33 34 35 35 37 38 39 40 41 42 43 44 44 45 46 46 46 46 46 46 46 46 47 47 47
23 23 23 23 24 25 25 25 26 27 27 28 29 30 30 31 32 32 32 32 33 35 36 38 39 40 40 41 41 42 43 44 45 45 45 46 46 45 45 45 46 46 46
24 24 25 25 25 25 26 26 26 27 27 28 28 29 29 29 30 31 32 32 33 34 35 36 37 38 39 40 41 42 43 44 45 45 45 45 45 46 46 46 46 46 46
25 25 25 25 26 26 27 28 28 28 28 28 28 28 29 29 30 31 32 32 33 33 33 35 36 37 38 39 41 41 42 42 43 43 43 44 45 45 45 45 45 45 45
25 25 25 25 26 26 26 28 28 29 29 29 29 29 29 29 30 31 32 32 32 33 33 34 34 35 36 37 38 38 39 40 41 41 42 42 43 43 43 44 44 44 44
26 26 26 26 26 26 26 27 27 29 29 30 30 30 30 31 31 31 32 32 33 33 33 33 33 34 35 35 36 37 38 38 39 39 40 41 41 42 42 42 42 42 42
25 26 26 26 26 26 27 27 27 28 29 30 30 31 31 32 33 33 33 33 33 33 34 34 34 33 33 34 34 35 36 37 37 37 38 39 40 40 40 40 40 41 41
Wind_Direction
246 245 245 244 244 243 244 244 245 243 243 241 241 242 242 242 243 243 244 245 245 245 245 245 245 247 247 247 247 247 248 250 253 252 251 251 253 254 255 256 257 258 260
248 247 245 244 246 245 245 245 245 243 242 240 241 242 242 242 243 242 243 244 244 245 245 244 245 246 247 248 248 249 250 251 252 251 251 251 252 255 255 255 256 258 259
250 247 245 245 246 245 245 245 245 244 243 242 241 242 242 243 243 243 243 244 244 245 245 245 245 246 246 247 248 249 251 252 253 253 252 252 253 255 255 255 256 257 259
250 248 246 245 245 245 245 245 245 244 243 242 242 243 243 243 243 244 244 245 245 245 245 245 245 246 246 247 248 249 251 252 253 253 253 253 254 255 255 255 257 259 259
252 249 246 244 245 245 245 245 245 245 243 242 243 243 243 244 244 245 245 245 245 245 245 245 245 245 246 247 247 249 250 251 252 254 254 253 254 254 255 256 258 260 261
252 248 246 245 245 247 247 247 246 246 244 244 244 244 244 245 245 245 245 245 245 244 245 245 245 246 247 247 246 247 249 250 252 253 253 253 254 253 254 256 258 259 261
252 248 247 246 246 247 248 247 246 246 245 245 246 247 246 245 244 244 244 244 244 244 245 245 245 246 246 247 247 248 249 249 250 251 252 253 253 253 254 256 258 259 260
251 249 247 246 246 247 248 247 246 246 246 247 247 246 246 245 245 245 244 244 245 246 246 246 245 246 246 247 248 249 250 250 250 252 253 254 254 253 253 254 257 259 260
252 250 248 245 246 247 247 247 247 246 247 247 246 246 245 245 245 244 245 245 245 245 245 246 247 247 246 247 248 249 250 251 252 253 254 254 255 254 254 255 258 259 261
251 250 248 246 247 247 247 247 247 246 246 245 246 247 247 246 243 243 244 245 247 246 246 246 246 247 247 248 249 250 251 251 251 252 254 255 255 255 255 257 259 260 261
251 249 248 247 248 248 247 247 247 246 245 246 246 247 247 246 244 243 243 246 247 247 246 245 246 247 248 249 249 250 250 250 251 252 253 254 254 254 256 259 259 260 261
252 251 250 249 249 250 248 248 247 246 246 246 247 246 246 246 245 245 245 246 247 247 246 244 244 246 248 248 248 248 248 249 251 252 252 252 253 255 257 258 259 261 262
253 252 252 251 251 250 250 249 247 246 246 245 245 245 246 245 246 247 246 247 247 248 246 244 244 245 246 247 248 249 251 251 252 253 252 252 254 256 257 258 260 261 262
256 255 254 252 251 251 251 250 248 246 245 246 245 245 245 246 248 248 248 249 248 248 247 246 246 246 247 248 249 250 252 254 254 253 252 253 254 256 258 259 259 261 263
256 254 253 252 250 250 251 251 248 246 247 249 249 247 247 249 250 250 249 248 248 247 246 246 246 247 248 249 250 251 252 253 254 253 252 253 255 257 258 258 260 261 263
256 255 252 250 250 250 250 250 249 248 250 252 252 250 249 250 250 250 248 247 247 246 246 247 248 249 249 250 251 252 253 253 254 254 255 256 256 257 258 260 261 262 263
256 254 251 251 252 251 250 248 248 248 250 251 252 253 251 251 251 250 248 246 246 246 247 248 248 248 249 251 252 253 253 253 254 255 256 257 257 257 259 260 261 262 264
258 255 252 252 252 252 251 249 247 248 250 251 252 252 251 251 251 250 250 249 248 248 249 249 249 249 250 251 251 251 252 253 254 255 257 259 259 259 259 260 261 263 265
258 256 254 253 252 252 252 251 250 251 252 252 252 251 252 251 251 252 251 250 249 250 251 251 250 250 250 250 250 251 253 254 255 256 258 259 259 259 260 261 262 263 264
256 257 256 254 253 252 252 252 251 252 253 254 253 252 253 255 254 253 253 251 249 249 250 251 251 250 251 252 252 252 253 254 255 256 256 257 258 259 260 261 262 263 264
257 256 257 256 255 254 254 253 253 253 254 256 254 253 253 254 252 252 254 255 253 253 252 252 253 252 252 253 253 253 254 254 255 256 256 257 258 260 261 262 263 263 264
258 258 257 256 256 256 256 256 255 255 256 257 257 256 255 254 252 253 254 255 256 256 255 254 254 254 254 255 255 255 256 256 256 257 258 259 260 261 261 263 264 264 264
260 260 260 259 259 259 258 257 256 256 256 256 256 256 256 256 255 255 254 254 256 257 257 256 256 257 257 257 258 258 259 258 258 259 259 260 261 261 262 263 263 263 264
260 260 261 261 261 260 260 259 258 257 256 255 256 256 257 256 255 255 255 256 257 257 257 258 258 259 259 259 260 260 261 260 259 259 260 260 261 261 261 261 261 262 262
261 261 261 261 261 261 261 260 259 258 257 256 257 257 257 257 256 256 257 257 258 257 258 259 260 260 261 260 260 259 260 260 260 260 260 260 260 260 260 260 260 260 261
262 261 261 261 261 261 260 260 259 259 259 258 258 258 258 257 257 256 257 258 258 259 259 260 260 261 261 261 260 260 260 260 259 259 259 260 260 260 259 259 260 261 263
Height
5592 5595 5597 5600 5603 5606 5609 5612 5616 5620 5624 5628 5632 5637 5641 5646 5650 5655 5660 5665 5670 5674 5678 5683 5686 5690 5693 5697 5700 5704 5707 5710 5713 5716 5718 5720 5722 5724 5727 5729 5731 5733 5734
5580 5583 5586 5588 5591 5594 5597 5600 5604 5607 5611 5615 5619 5623 5628 5632 5637 5642 5647 5652 5657 5662 5666 5670 5674 5677 5681 5685 5689 5692 5695 5698 5701 5704 5706 5709 5711 5713 5715 5718 5719 5721 5723
5568 5571 5574 5576 5579 5582 5585 5588 5592 5595 5599 5602 5606 5610 5615 5619 5624 5628 5633 5638 5643 5648 5653 5657 5661 5664 5669 5672 5676 5680 5683 5686 5689 5692 5695 5697 5700 5701 5704 5706 5707 5709 5711
5557 5559 5562 5565 5568 5571 5574 5577 5580 5583 5586 5590 5594 5597 5602 5606 5610 5615 5620 5624 5629 5634 5639 5643 5647 5651 5656 5659 5663 5667 5670 5674 5676 5679 5682 5685 5687 5689 5691 5693 5696 5697 5699
5545 5547 5550 5553 5556 5559 5562 5565 5568 5571 5574 5577 5581 5584 5589 5593 5597 5602 5606 5611 5615 5620 5625 5629 5633 5638 5642 5646 5650 5654 5657 5660 5663 5666 5669 5672 5674 5677 5679 5681 5683 5685 5686
5533 5535 5538 5541 5544 5547 5550 5553 5556 5558 5561 5565 5568 5572 5575 5579 5584 5588 5592 5597 5601 5606 5611 5615 5620 5624 5628 5632 5636 5640 5644 5647 5650 5653 5656 5659 5661 5664 5666 5668 5670 5672 5674
5521 5523 5526 5529 5533 5535 5538 5541 5544 5546 5549 5552 5555 5559 5562 5566 5570 5574 5578 5582 5587 5592 5596 5601 5606 5610 5614 5618 5622 5626 5629 5633 5637 5640 5643 5645 5648 5651 5653 5655 5657 5659 5661
5510 5513 5515 5518 5522 5524 5527 5530 5532 5535 5537 5540 5542 5546 5549 5552 5556 5560 5564 5568 5572 5577 5582 5587 5592 5596 5600 5604 5608 5611 5615 5619 5623 5627 5630 5633 5635 5636 5639 5642 5644 5646 5648
5500 5502 5504 5508 5511 5514 5516 5519 5521 5524 5526 5527 5530 5533 5536 5540 5543 5547 5550 5554 5559 5564 5568 5573 5577 5582 5587 5591 5594 5598 5602 5605 5608 5612 5615 5618 5620 5623 5626 5628 5629 5631 5634
5490 5492 5494 5497 5500 5503 5506 5508 5510 5513 5515 5516 5519 5521 5524 5527 5531 5534 5538 5542 5546 5550 5555 5559 5564 5568 5572 5575 5579 5584 5588 5591 5594 5598 5601 5603 5606 5609 5611 5614 5616 5618 5620
5481 5483 5485 5487 5490 5493 5495 5498 5500 5502 5504 5506 5508 5510 5513 5516 5519 5522 5526 5530 5533 5537 5541 5545 5550 5554 5558 5561 5565 5570 5574 5577 5580 5583 5586 5589 5592 5595 5598 5600 5602 5604 5606
5473 5475 5476 5478 5481 5483 5486 5488 5490 5492 5494 5496 5498 5500 5503 5506 5508 5511 5515 5518 5521 5525 5528 5533 5537 5541 5544 5548 5552 5556 5559 5562 5565 5568 5572 5575 5578 5581 5584 5586 5587 5589 5591
5465 5466 5468 5470 5472 5474 5476 5478 5480 5482 5484 5486 5489 5491 5493 5495 5498 5500 5503 5506 5509 5513 5516 5520 5524 5528 5532 5535 5539 5543 5545 5548 5551 5554 5558 5562 5565 5567 5569 5571 5573 5574 5576
5457 5458 5460 5462 5464 5466 5467 5469 5471 5473 5475 5477 5479 5481 5483 5485 5487 5489 5491 5494 5497 5500 5504 5507 5511 5514 5518 5523 5526 5529 5532 5535 5538 5541 5545 5548 5551 5553 5555 5557 5559 5561 5562
5450 5451 5452 5453 5455 5457 5458 5459 5461 5463 5465 5467 5469 5471 5473 5475 5476 5478 5480 5483 5486 5489 5492 5495 5499 5502 5506 5510 5513 5517 5520 5522 5525 5528 5531 5534 5537 5539 5541 5543 5545 5547 5548
5442 5443 5444 5445 5447 5449 5450 5451 5452 5454 5457 5458 5460 5462 5463 5465 5467 5468 5470 5472 5475 5478 5481 5484 5488 5491 5495 5498 5501 5504 5507 5510 5513 5515 5518 5521 5523 5525 5527 5529 5531 5533 5534
5434 5435 5437 5438 5439 5440 5442 5443 5445 5446 5448 5449 5451 5453 5454 5456 5457 5459 5461 5463 5465 5468 5471 5474 5477 5480 5483 5486 5489 5492 5494 5497 5500 5503 5505 5507 5509 5511 5513 5515 5516 5518 5519
5426 5427 5429 5430 5431 5433 5434 5435 5437 5438 5440 5441 5442 5444 5445 5447 5448 5450 5452 5454 5456 5458 5461 5464 5467 5469 5472 5474 5477 5479 5482 5485 5487 5490 5492 5493 5495 5497 5499 5500 5502 5503 5504
5420 5420 5421 5423 5424 5425 5426 5427 5429 5430 5432 5433 5434 5435 5437 5438 5440 5441 5443 5445 5447 5449 5452 5454 5456 5458 5461 5463 5465 5468 5470 5472 5475 5477 5479 5480 5482 5484 5485 5486 5487 5489 5490
5413 5414 5414 5415 5416 5417 5418 5420 5421 5422 5424 5425 5426 5427 5428 5430 5431 5433 5434 5436 5438 5440 5442 5444 5446 5447 5449 5451 5454 5456 5458 5460 5462 5464 5466 5467 5469 5470 5472 5473 5474 5475 5476
5407 5407 5408 5408 5409 5410 5411 5412 5413 5414 5415 5416 5417 5418 5420 5421 5423 5424 5425 5427 5428 5430 5431 5433 5434 5436 5438 5440 5442 5444 5446 5448 5449 5451 5452 5454 5456 5457 5458 5459 5460 5461 5462
5399 5400 5401 5401 5402 5402 5403 5404 5405 5406 5407 5408 5409 5410 5412 5413 5414 5415 5416 5417 5419 5420 5421 5422 5424 5425 5427 5428 5430 5432 5433 5435 5436 5438 5440 5441 5443 5444 5445 5446 5447 5448 5448
5392 5392 5393 5393 5394 5395 5395 5396 5397 5398 5399 5400 5401 5402 5403 5404 5405 5406 5407 5408 5409 5410 5411 5412 5413 5414 5416 5417 5418 5420 5421 5422 5424 5426 5427 5429 5430 5431 5432 5433 5434 5435 5435
5384 5385 5385 5385 5386 5387 5387 5388 5388 5389 5390 5391 5392 5393 5394 5395 5396 5397 5398 5399 5400 5401 5401 5402 5403 5404 5405 5406 5407 5408 5409 5410 5412 5413 5415 5416 5417 5418 5419 5420 5421 5422 5422
5376 5376 5377 5377 5378 5378 5379 5379 5380 5380 5381 5382 5383 5384 5385 5386 5387 5388 5389 5390 5390 5391 5391 5392 5393 5394 5394 5395 5396 5397 5398 5399 5400 5401 5402 5403 5405 5406 5406 5407 5408 5409 5410
5367 5367 5368 5368 5369 5369 5370 5370 5371 5371 5372 5373 5373 5374 5375 5376 5377 5378 5379 5380 5381 5381 5382 5382 5383 5383 5384 5384 5385 5386 5387 5388 5388 5389 5391 5392 5392 5393 5394 5395 5396 5397 5397